STARLINK-34300 (64218 NORAD) Tracking and Keplerian Element Data

This shows tracking and keplerian element data for the satellite.

Feedback or suggestion? Click here.




ElementValue
Catalog64218
NameSTARLINK-34300
Epoch Orbit3224
Epoch Day353.44829012
Epoch Year2025
RAAN52.0908
Inclination53.1603
Eccentricity0.0001528
Argument of Perigee99.3109
Mean Anonmoly260.8064
Mean Motion15.30178685
Decay Rate0.00021826
L11 64218U 25117R 25353.44829012 .00021826 00000+0 74737-3 0 9994
L22 64218 53.1603 52.0908 0001528 99.3109 260.8064 15.30178685 32243



Live tracking and technical data element details for STARLINK-34300 (NORAD 64218). STARLINK-34300 can be tracked NOW for your location showing map with azimuth and elevation plus other details from your city location.







IsCatalogInMostPopularTable: catalog: 64218, numindb: 2
Update: records affected: 1



GetName: 64218 STARLINK-34300

Hit Count: updated at: Sun, 08 Feb 2026 18:16:20 GMT